YAOGAN-31 B

导读 | 星芒AI

YAOGAN-31 B 是中国研制的一颗遥感卫星,主要用于科学实验、国土资源普查、环境监测及灾害预警等领域。该卫星具备高分辨率对地观测能力,能够提供精准的遥感数据,支持国家在农业、林业、水利和城市规划等方面的应用需求。作为 YAOGAN 系列的一部分,YAOGAN-31 B 在提升中国遥感技术自主化水平和数据获取能力方面发挥了重要作用。

基本信息
目录编号:
43276
目录名称:
YAOGAN-31 B
国际标识:
2018-034B
轨道中心:
EARTH
卫星名称:
YAOGAN-31 B
卫星全名:
--
卫星状态:
在轨 (已飞行2759 天)
发射日期:
2018-04-10 UTC
国别 :
中国 (CN)
星等 :
--
轨道信息
数据来源 国际轨道数据 AOE轨道数据
星历时间 2025-10-28T22:47:53+0800
16小时前
查看轨道信息
2025-10-29T05:00:00+0800
10小时前
查看轨道信息
半长轴 7467.286km 7467.287km
偏心率 0.0254417 0.0254625
轨道倾角 63.398° 63.398°
近地点辐角 6.632° 6.631°
升交点赤经 327.040° 326.375°
平近点角 353.797° 165.428°
近地点 899.17km 899.016km
远地点 1279.132km 1279.288km
周期 107.030分钟 107.030分钟
每日圈数 13.454224 13.454221
详细信息
使用方式:
暂无
2D轨道图
3D轨道图
轨道高度分析图
轨道倾角分析图
轨道综合分析图
查看轨道综合分析图